Time,TemperatureF,DewpointF,PressureIn,WindDirection,WindDirectionDegrees,WindSpeedMPH,WindSpeedGustMPH,Humidity,HourlyPrecipIn,Conditions,Clouds,dailyrainin,SoftwareType,DateUTC
2013-01-21 00:12:00,17.0,0.0,29.95,WNW,284,8.0,-999.0,47,-99.99,,,0.00,weatherlink.com 1.10,2013-01-21 05:12:00,
2013-01-21 00:27:00,16.5,0.0,29.95,WNW,303,7.0,-999.0,48,-99.99,,,0.00,weatherlink.com 1.10,2013-01-21 05:27:00,
2013-01-21 00:57:00,15.7,0.0,29.96,WSW,250,0.0,-999.0,50,-99.99,,,0.00,weatherlink.com 1.10,2013-01-21 05:57:00,
2013-01-21 01:12:00,15.2,0.0,29.97,WNW,286,0.0,-999.0,51,-99.99,,,0.00,weatherlink.com 1.10,2013-01-21 06:12:00,
2013-01-21 01:27:00,14.9,1.0,29.98,WSW,256,0.0,-999.0,53,-99.99,,,0.00,weatherlink.com 1.10,2013-01-21 06:27:00,
2013-01-21 01:42:00,14.8,0.0,29.98,NNW,337,7.0,-999.0,52,-99.99,,,0.00,weatherlink.com 1.10,2013-01-21 06:42:00,
2013-01-21 01:57:00,14.4,0.0,29.98,SW,214,3.0,-999.0,52,-99.99,,,0.00,weatherlink.com 1.10,2013-01-21 06:57:00,
2013-01-21 02:12:00,14.3,-1.0,29.99,West,280,0.0,-999.0,52,-99.99,,,0.00,weatherlink.com 1.10,2013-01-21 07:12:00,
2013-01-21 02:27:00,14.0,-1.0,30.00,WSW,243,3.0,-999.0,51,-99.99,,,0.00,weatherlink.com 1.10,2013-01-21 07:27:00,
2013-01-21 02:42:00,13.7,-2.0,29.99,WNW,285,0.0,-999.0,50,-99.99,,,0.00,weatherlink.com 1.10,2013-01-21 07:42:00,
2013-01-21 02:57:00,13.7,-2.0,30.00,WNW,291,9.0,-999.0,49,-99.99,,,0.00,weatherlink.com 1.10,2013-01-21 07:57:00,
2013-01-21 03:12:00,13.7,-2.0,29.99,SW,217,4.0,-999.0,49,-99.99,,,0.00,weatherlink.com 1.10,2013-01-21 08:12:00,
2013-01-21 03:28:00,13.7,-2.0,29.99,WSW,241,3.0,-999.0,49,-99.99,,,0.00,weatherlink.com 1.10,2013-01-21 08:28:00,
2013-01-21 03:43:00,13.5,-3.0,29.99,WNW,291,1.0,-999.0,49,-99.99,,,0.00,weatherlink.com 1.10,2013-01-21 08:43:00,
2013-01-21 03:58:00,13.4,-3.0,29.99,West,269,1.0,-999.0,49,-99.99,,,0.00,weatherlink.com 1.10,2013-01-21 08:58:00,
2013-01-21 04:13:00,13.2,-3.0,30.00,NW,326,0.0,-999.0,49,-99.99,,,0.00,weatherlink.com 1.10,2013-01-21 09:13:00,
2013-01-21 04:28:00,13.1,-2.0,30.00,WNW,282,0.0,-999.0,50,-99.99,,,0.00,weatherlink.com 1.10,2013-01-21 09:28:00,
2013-01-21 04:43:00,13.1,-3.0,30.00,WNW,290,6.0,-999.0,49,-99.99,,,0.00,weatherlink.com 1.10,2013-01-21 09:43:00,
2013-01-21 04:58:00,13.0,-3.0,30.00,WNW,298,0.0,-999.0,49,-99.99,,,0.00,weatherlink.com 1.10,2013-01-21 09:58:00,
2013-01-21 05:13:00,12.5,-3.0,30.01,NW,319,0.0,-999.0,50,-99.99,,,0.00,weatherlink.com 1.10,2013-01-21 10:13:00,
2013-01-21 05:28:00,11.0,-2.0,30.02,NW,320,0.0,-999.0,55,-99.99,,,0.00,weatherlink.com 1.10,2013-01-21 10:28:00,
2013-01-21 05:43:00,10.8,-2.0,30.02,NW,319,0.0,-999.0,56,-99.99,,,0.00,weatherlink.com 1.10,2013-01-21 10:43:00,
2013-01-21 05:58:00,10.7,-2.0,30.02,NW,320,0.0,-999.0,56,-99.99,,,0.00,weatherlink.com 1.10,2013-01-21 10:58:00,
2013-01-21 06:13:00,10.6,-3.0,30.03,NW,319,0.0,-999.0,55,-99.99,,,0.00,weatherlink.com 1.10,2013-01-21 11:13:00,
2013-01-21 06:28:00,10.1,-3.0,30.03,NW,320,0.0,-999.0,56,-99.99,,,0.00,weatherlink.com 1.10,2013-01-21 11:28:00,
2013-01-21 06:44:00,8.8,-3.0,30.04,NW,320,0.0,-999.0,60,-99.99,,,0.00,weatherlink.com 1.10,2013-01-21 11:44:00,
2013-01-21 06:59:00,8.6,-3.0,30.05,NW,320,0.0,-999.0,60,-99.99,,,0.00,weatherlink.com 1.10,2013-01-21 11:59:00,
2013-01-21 07:14:00,8.0,-3.0,30.05,NW,319,0.0,-999.0,61,-99.99,,,0.00,weatherlink.com 1.10,2013-01-21 12:14:00,
2013-01-21 07:29:00,8.0,-3.0,30.06,NW,320,0.0,-999.0,61,-99.99,,,0.00,weatherlink.com 1.10,2013-01-21 12:29:00,
2013-01-21 07:44:00,7.4,-3.0,30.06,SW,235,2.0,-999.0,64,-99.99,,,0.00,weatherlink.com 1.10,2013-01-21 12:44:00,
2013-01-21 07:59:00,7.8,-2.0,30.06,SW,234,0.0,-999.0,65,-99.99,,,0.00,weatherlink.com 1.10,2013-01-21 12:59:00,
2013-01-21 08:14:00,8.5,-1.0,30.06,SW,234,0.0,-999.0,66,-99.99,,,0.00,weatherlink.com 1.10,2013-01-21 13:14:00,
2013-01-21 08:29:00,8.5,-1.0,30.07,SW,233,0.0,-999.0,66,-99.99,,,0.00,weatherlink.com 1.10,2013-01-21 13:29:00,
2013-01-21 08:44:00,9.3,0.0,30.07,SW,234,0.0,-999.0,66,-99.99,,,0.00,weatherlink.com 1.10,2013-01-21 13:44:00,
2013-01-21 08:59:00,9.9,1.0,30.07,WSW,237,0.0,-999.0,68,-99.99,,,0.00,weatherlink.com 1.10,2013-01-21 13:59:00,
2013-01-21 09:14:00,10.1,2.0,30.08,WSW,237,0.0,-999.0,69,-99.99,,,0.00,weatherlink.com 1.10,2013-01-21 14:14:00,
2013-01-21 09:29:00,11.5,2.0,30.08,WSW,237,0.0,-999.0,65,-99.99,,,0.00,weatherlink.com 1.10,2013-01-21 14:29:00,
2013-01-21 09:44:00,12.4,2.0,30.09,SW,234,0.0,-999.0,62,-99.99,,,0.00,weatherlink.com 1.10,2013-01-21 14:44:00,
2013-01-21 09:59:00,13.5,1.0,30.09,SW,235,0.0,-999.0,58,-99.99,,,0.00,weatherlink.com 1.10,2013-01-21 14:59:00,
2013-01-21 10:15:00,15.8,2.0,30.08,SW,235,0.0,-999.0,54,-99.99,,,0.00,weatherlink.com 1.10,2013-01-21 15:15:00,
2013-01-21 10:30:00,17.2,2.0,30.08,SW,234,0.0,-999.0,51,-99.99,,,0.00,weatherlink.com 1.10,2013-01-21 15:30:00,
2013-01-21 10:45:00,18.2,1.0,30.07,NW,306,0.0,-999.0,47,-99.99,,,0.00,weatherlink.com 1.10,2013-01-21 15:45:00,
2013-01-21 11:00:00,18.5,2.0,30.06,NNE,26,0.0,-999.0,49,-99.99,,,0.00,weatherlink.com 1.10,2013-01-21 16:00:00,
2013-01-21 11:15:00,18.8,4.0,30.04,NNW,341,2.0,-999.0,52,-99.99,,,0.00,weatherlink.com 1.10,2013-01-21 16:15:00,
2013-01-21 11:30:00,19.2,4.0,30.03,WSW,249,4.0,-999.0,51,-99.99,,,0.00,weatherlink.com 1.10,2013-01-21 16:30:00,
2013-01-21 11:45:00,19.7,4.0,30.02,WSW,244,1.0,-999.0,51,-99.99,,,0.00,weatherlink.com 1.10,2013-01-21 16:45:00,
2013-01-21 12:00:00,19.7,4.0,30.01,WSW,256,0.0,-999.0,51,-99.99,,,0.00,weatherlink.com 1.10,2013-01-21 17:00:00,
2013-01-21 12:15:00,20.5,4.0,30.00,NW,311,0.0,-999.0,50,-99.99,,,0.00,weatherlink.com 1.10,2013-01-21 17:15:00,
2013-01-21 12:30:00,19.7,4.0,30.00,NE,56,0.0,-999.0,50,-99.99,,,0.00,weatherlink.com 1.10,2013-01-21 17:30:00,
2013-01-21 12:45:00,20.6,5.0,29.99,North,4,4.0,-999.0,50,-99.99,,,0.00,weatherlink.com 1.10,2013-01-21 17:45:00,
2013-01-21 13:00:00,20.4,4.0,29.98,North,350,3.0,-999.0,50,-99.99,,,0.00,weatherlink.com 1.10,2013-01-21 18:00:00,
2013-01-21 13:15:00,22.1,6.0,29.98,NNW,333,3.0,-999.0,50,-99.99,,,0.00,weatherlink.com 1.10,2013-01-21 18:15:00,
2013-01-21 13:30:00,21.2,5.0,29.97,WNW,294,5.0,-999.0,49,-99.99,,,0.00,weatherlink.com 1.10,2013-01-21 18:30:00,
2013-01-21 13:46:00,21.4,4.0,29.97,North,351,3.0,-999.0,48,-99.99,,,0.00,weatherlink.com 1.10,2013-01-21 18:46:00,
2013-01-21 14:01:00,22.0,5.0,29.97,WSW,253,0.0,-999.0,48,-99.99,,,0.00,weatherlink.com 1.10,2013-01-21 19:01:00,
2013-01-21 14:16:00,21.6,5.0,29.96,WSW,237,4.0,-999.0,48,-99.99,,,0.00,weatherlink.com 1.10,2013-01-21 19:16:00,
2013-01-21 14:31:00,21.7,5.0,29.96,SW,228,0.0,-999.0,48,-99.99,,,0.00,weatherlink.com 1.10,2013-01-21 19:31:00,
2013-01-21 14:46:00,22.0,5.0,29.96,WSW,238,0.0,-999.0,49,-99.99,,,0.00,weatherlink.com 1.10,2013-01-21 19:46:00,
2013-01-21 15:01:00,21.7,5.0,29.96,South,190,1.0,-999.0,48,-99.99,,,0.00,weatherlink.com 1.10,2013-01-21 20:01:00,
2013-01-21 15:16:00,21.6,5.0,29.95,SE,143,4.0,-999.0,50,-99.99,,,0.00,weatherlink.com 1.10,2013-01-21 20:16:00,
2013-01-21 15:31:00,21.5,6.0,29.95,South,177,6.0,-999.0,51,-99.99,,,0.00,weatherlink.com 1.10,2013-01-21 20:31:00,
2013-01-21 15:46:00,21.3,6.0,29.95,WSW,248,0.0,-999.0,52,-99.99,,,0.00,weatherlink.com 1.10,2013-01-21 20:46:00,
2013-01-21 16:01:00,21.2,6.0,29.95,WNW,286,0.0,-999.0,52,-99.99,,,0.00,weatherlink.com 1.10,2013-01-21 21:01:00,
2013-01-21 16:16:00,20.9,7.0,29.95,WSW,249,1.0,-999.0,55,-99.99,,,0.00,weatherlink.com 1.10,2013-01-21 21:16:00,
2013-01-21 16:31:00,20.6,7.0,29.95,WNW,283,1.0,-999.0,57,-99.99,,,0.00,weatherlink.com 1.10,2013-01-21 21:31:00,
2013-01-21 16:46:00,20.3,8.0,29.94,NW,305,2.0,-999.0,59,-99.99,,,0.00,weatherlink.com 1.10,2013-01-21 21:46:00,
2013-01-21 17:02:00,19.8,9.0,29.94,NNW,329,2.0,-999.0,63,-99.99,,,0.00,weatherlink.com 1.10,2013-01-21 22:02:00,
2013-01-21 17:17:00,19.7,9.0,29.94,North,4,3.0,-999.0,63,-99.99,,,0.00,weatherlink.com 1.10,2013-01-21 22:17:00,
2013-01-21 17:32:00,19.6,9.0,29.94,NNE,15,2.0,-999.0,63,-99.99,,,0.00,weatherlink.com 1.10,2013-01-21 22:32:00,
2013-01-21 17:47:00,19.2,9.0,29.94,North,349,3.0,-999.0,65,-99.99,,,0.00,weatherlink.com 1.10,2013-01-21 22:47:00,
2013-01-21 18:02:00,18.8,10.0,29.95,NE,37,2.0,-999.0,68,-99.99,,,0.00,weatherlink.com 1.10,2013-01-21 23:02:00,
2013-01-21 18:17:00,18.3,10.0,29.95,NNW,335,2.0,-999.0,71,-99.99,,,0.00,weatherlink.com 1.10,2013-01-21 23:17:00,
2013-01-21 18:32:00,17.8,11.0,29.95,North,10,3.0,-999.0,75,-99.99,,,0.00,weatherlink.com 1.10,2013-01-21 23:32:00,
2013-01-21 18:47:00,17.4,12.0,29.95,North,10,0.0,-999.0,78,-99.99,,,0.00,weatherlink.com 1.10,2013-01-21 23:47:00,
2013-01-21 19:02:00,17.2,12.0,29.95,North,10,2.0,-999.0,81,-99.99,,,0.00,weatherlink.com 1.10,2013-01-22 00:02:00,
2013-01-21 19:17:00,17.1,13.0,29.95,North,10,0.0,-999.0,83,-99.99,,,0.00,weatherlink.com 1.10,2013-01-22 00:17:00,
2013-01-21 19:32:00,17.1,13.0,29.95,North,10,1.0,-999.0,84,-99.99,,,0.00,weatherlink.com 1.10,2013-01-22 00:32:00,
2013-01-21 20:02:00,17.1,13.0,29.94,NW,319,0.0,-999.0,85,-99.99,,,0.00,weatherlink.com 1.10,2013-01-22 01:02:00,
2013-01-21 20:17:00,17.1,13.0,29.93,NW,319,0.0,-999.0,85,-99.99,,,0.00,weatherlink.com 1.10,2013-01-22 01:17:00,
2013-01-21 20:33:00,16.9,13.0,29.92,NW,319,0.0,-999.0,86,-99.99,,,0.00,weatherlink.com 1.10,2013-01-22 01:33:00,
2013-01-21 20:48:00,16.8,13.0,29.92,NW,319,0.0,-999.0,86,-99.99,,,0.00,weatherlink.com 1.10,2013-01-22 01:48:00,
2013-01-21 21:03:00,16.8,14.0,29.92,NW,319,0.0,-999.0,87,-99.99,,,0.00,weatherlink.com 1.10,2013-01-22 02:03:00,
2013-01-21 21:18:00,16.8,14.0,29.91,NW,319,0.0,-999.0,87,-99.99,,,0.00,weatherlink.com 1.10,2013-01-22 02:18:00,
2013-01-21 21:33:00,16.9,14.0,29.91,NW,319,0.0,-999.0,87,-99.99,,,0.00,weatherlink.com 1.10,2013-01-22 02:33:00,
2013-01-21 21:48:00,16.8,14.0,29.90,NW,320,0.0,-999.0,87,-99.99,,,0.00,weatherlink.com 1.10,2013-01-22 02:48:00,
2013-01-21 22:03:00,16.7,14.0,29.89,NW,309,0.0,-999.0,87,-99.99,,,0.00,weatherlink.com 1.10,2013-01-22 03:03:00,
2013-01-21 22:18:00,16.6,13.0,29.89,NW,309,0.0,-999.0,87,-99.99,,,0.00,weatherlink.com 1.10,2013-01-22 03:18:00,
2013-01-21 22:33:00,16.6,13.0,29.88,NW,309,0.0,-999.0,87,-99.99,,,0.00,weatherlink.com 1.10,2013-01-22 03:33:00,
2013-01-21 22:48:00,16.6,13.0,29.86,NW,309,0.0,-999.0,87,-99.99,,,0.00,weatherlink.com 1.10,2013-01-22 03:48:00,
2013-01-21 23:03:00,16.5,13.0,29.85,NW,309,0.0,-999.0,87,-99.99,,,0.00,weatherlink.com 1.10,2013-01-22 04:03:00,
2013-01-21 23:18:00,16.5,13.0,29.84,WNW,290,0.0,-999.0,87,-99.99,,,0.00,weatherlink.com 1.10,2013-01-22 04:18:00,
2013-01-21 23:33:00,16.5,13.0,29.83,WNW,290,0.0,-999.0,87,-99.99,,,0.00,weatherlink.com 1.10,2013-01-22 04:33:00,
2013-01-21 23:49:00,16.4,13.0,29.83,NNW,344,0.0,-999.0,87,-99.99,,,0.00,weatherlink.com 1.10,2013-01-22 04:49:00,